Index of /20260504/WXO-DD/model_caps/3km/00/000
Name Last modified Size Description
Parent Directory -
20260504T00Z_MSC_CAPS_AbsoluteVorticity_IsbL-0250_RLatLon0.03_PT000H.grib2 2026-05-04 06:03 969K
20260504T00Z_MSC_CAPS_AbsoluteVorticity_IsbL-0500_RLatLon0.03_PT000H.grib2 2026-05-04 06:03 1.1M
20260504T00Z_MSC_CAPS_AbsoluteVorticity_IsbL-0700_RLatLon0.03_PT000H.grib2 2026-05-04 06:03 1.0M
20260504T00Z_MSC_CAPS_AbsoluteVorticity_IsbL-0850_RLatLon0.03_PT000H.grib2 2026-05-04 06:03 1.2M
20260504T00Z_MSC_CAPS_AbsoluteVorticity_IsbL-1000_RLatLon0.03_PT000H.grib2 2026-05-04 06:03 1.5M
20260504T00Z_MSC_CAPS_AirDensity_AGL-120m_RLatLon0.03_PT000H.grib2 2026-05-04 06:03 1.1M
20260504T00Z_MSC_CAPS_AirDensity_AGL-40m_RLatLon0.03_PT000H.grib2 2026-05-04 06:03 1.1M
20260504T00Z_MSC_CAPS_AirDensity_AGL-80m_RLatLon0.03_PT000H.grib2 2026-05-04 06:03 1.1M
20260504T00Z_MSC_CAPS_AirTemp_AGL-120m_RLatLon0.03_PT000H.grib2 2026-05-04 06:03 1.0M
20260504T00Z_MSC_CAPS_AirTemp_AGL-2m_RLatLon0.03_PT000H.grib2 2026-05-04 06:03 971K
20260504T00Z_MSC_CAPS_AirTemp_AGL-40m_RLatLon0.03_PT000H.grib2 2026-05-04 06:03 1.1M
20260504T00Z_MSC_CAPS_AirTemp_AGL-80m_RLatLon0.03_PT000H.grib2 2026-05-04 06:03 1.0M
20260504T00Z_MSC_CAPS_AirTemp_IsbL-0050_RLatLon0.03_PT000H.grib2 2026-05-04 06:03 679K
20260504T00Z_MSC_CAPS_AirTemp_IsbL-0100_RLatLon0.03_PT000H.grib2 2026-05-04 06:03 911K
20260504T00Z_MSC_CAPS_AirTemp_IsbL-0150_RLatLon0.03_PT000H.grib2 2026-05-04 06:03 706K
20260504T00Z_MSC_CAPS_AirTemp_IsbL-0175_RLatLon0.03_PT000H.grib2 2026-05-04 06:03 722K
20260504T00Z_MSC_CAPS_AirTemp_IsbL-0200_RLatLon0.03_PT000H.grib2 2026-05-04 06:03 740K
20260504T00Z_MSC_CAPS_AirTemp_IsbL-0225_RLatLon0.03_PT000H.grib2 2026-05-04 06:03 751K
20260504T00Z_MSC_CAPS_AirTemp_IsbL-0250_RLatLon0.03_PT000H.grib2 2026-05-04 06:03 971K
20260504T00Z_MSC_CAPS_AirTemp_IsbL-0275_RLatLon0.03_PT000H.grib2 2026-05-04 06:03 966K
20260504T00Z_MSC_CAPS_AirTemp_IsbL-0300_RLatLon0.03_PT000H.grib2 2026-05-04 06:03 960K
20260504T00Z_MSC_CAPS_AirTemp_IsbL-0350_RLatLon0.03_PT000H.grib2 2026-05-04 06:03 723K
20260504T00Z_MSC_CAPS_AirTemp_IsbL-0400_RLatLon0.03_PT000H.grib2 2026-05-04 06:03 725K
20260504T00Z_MSC_CAPS_AirTemp_IsbL-0450_RLatLon0.03_PT000H.grib2 2026-05-04 06:03 732K
20260504T00Z_MSC_CAPS_AirTemp_IsbL-0500_RLatLon0.03_PT000H.grib2 2026-05-04 06:03 738K
20260504T00Z_MSC_CAPS_AirTemp_IsbL-0550_RLatLon0.03_PT000H.grib2 2026-05-04 06:03 905K
20260504T00Z_MSC_CAPS_AirTemp_IsbL-0600_RLatLon0.03_PT000H.grib2 2026-05-04 06:03 917K
20260504T00Z_MSC_CAPS_AirTemp_IsbL-0650_RLatLon0.03_PT000H.grib2 2026-05-04 06:03 930K
20260504T00Z_MSC_CAPS_AirTemp_IsbL-0700_RLatLon0.03_PT000H.grib2 2026-05-04 06:03 946K
20260504T00Z_MSC_CAPS_AirTemp_IsbL-0750_RLatLon0.03_PT000H.grib2 2026-05-04 06:03 963K
20260504T00Z_MSC_CAPS_AirTemp_IsbL-0800_RLatLon0.03_PT000H.grib2 2026-05-04 06:03 904K
20260504T00Z_MSC_CAPS_AirTemp_IsbL-0850_RLatLon0.03_PT000H.grib2 2026-05-04 06:03 940K
20260504T00Z_MSC_CAPS_AirTemp_IsbL-0875_RLatLon0.03_PT000H.grib2 2026-05-04 06:03 959K
20260504T00Z_MSC_CAPS_AirTemp_IsbL-0900_RLatLon0.03_PT000H.grib2 2026-05-04 06:03 1.0M
20260504T00Z_MSC_CAPS_AirTemp_IsbL-0925_RLatLon0.03_PT000H.grib2 2026-05-04 06:03 1.0M
20260504T00Z_MSC_CAPS_AirTemp_IsbL-0950_RLatLon0.03_PT000H.grib2 2026-05-04 06:03 1.0M
20260504T00Z_MSC_CAPS_AirTemp_IsbL-0970_RLatLon0.03_PT000H.grib2 2026-05-04 06:03 1.0M
20260504T00Z_MSC_CAPS_AirTemp_IsbL-0985_RLatLon0.03_PT000H.grib2 2026-05-04 06:03 1.0M
20260504T00Z_MSC_CAPS_AirTemp_IsbL-1000_RLatLon0.03_PT000H.grib2 2026-05-04 06:03 1.0M
20260504T00Z_MSC_CAPS_AirTemp_IsbL-1015_RLatLon0.03_PT000H.grib2 2026-05-04 06:03 972K
20260504T00Z_MSC_CAPS_Albedo_Sfc_RLatLon0.03_PT000H.grib2 2026-05-04 06:03 2.7M
20260504T00Z_MSC_CAPS_CAPE_Sfc_RLatLon0.03_PT000H.grib2 2026-05-04 06:03 158K
20260504T00Z_MSC_CAPS_CloudWater_EAtm_RLatLon0.03_PT000H.grib2 2026-05-04 06:03 1.2M
20260504T00Z_MSC_CAPS_DewPointDepression_AGL-120m_RLatLon0.03_PT000H.grib2 2026-05-04 06:03 1.3M
20260504T00Z_MSC_CAPS_DewPointDepression_AGL-2m_RLatLon0.03_PT000H.grib2 2026-05-04 06:03 1.2M
20260504T00Z_MSC_CAPS_DewPointDepression_AGL-40m_RLatLon0.03_PT000H.grib2 2026-05-04 06:03 1.4M
20260504T00Z_MSC_CAPS_DewPointDepression_AGL-80m_RLatLon0.03_PT000H.grib2 2026-05-04 06:03 1.4M
20260504T00Z_MSC_CAPS_DewPointDepression_IsbL-0050_RLatLon0.03_PT000H.grib2 2026-05-04 06:03 11K
20260504T00Z_MSC_CAPS_DewPointDepression_IsbL-0100_RLatLon0.03_PT000H.grib2 2026-05-04 06:03 84K
20260504T00Z_MSC_CAPS_DewPointDepression_IsbL-0150_RLatLon0.03_PT000H.grib2 2026-05-04 06:03 84K
20260504T00Z_MSC_CAPS_DewPointDepression_IsbL-0175_RLatLon0.03_PT000H.grib2 2026-05-04 06:03 188K
20260504T00Z_MSC_CAPS_DewPointDepression_IsbL-0200_RLatLon0.03_PT000H.grib2 2026-05-04 06:03 333K
20260504T00Z_MSC_CAPS_DewPointDepression_IsbL-0225_RLatLon0.03_PT000H.grib2 2026-05-04 06:03 562K
20260504T00Z_MSC_CAPS_DewPointDepression_IsbL-0250_RLatLon0.03_PT000H.grib2 2026-05-04 06:03 734K
20260504T00Z_MSC_CAPS_DewPointDepression_IsbL-0275_RLatLon0.03_PT000H.grib2 2026-05-04 06:03 842K
20260504T00Z_MSC_CAPS_DewPointDepression_IsbL-0300_RLatLon0.03_PT000H.grib2 2026-05-04 06:03 885K
20260504T00Z_MSC_CAPS_DewPointDepression_IsbL-0350_RLatLon0.03_PT000H.grib2 2026-05-04 06:03 902K
20260504T00Z_MSC_CAPS_DewPointDepression_IsbL-0400_RLatLon0.03_PT000H.grib2 2026-05-04 06:03 921K
20260504T00Z_MSC_CAPS_DewPointDepression_IsbL-0450_RLatLon0.03_PT000H.grib2 2026-05-04 06:03 942K
20260504T00Z_MSC_CAPS_DewPointDepression_IsbL-0500_RLatLon0.03_PT000H.grib2 2026-05-04 06:03 948K
20260504T00Z_MSC_CAPS_DewPointDepression_IsbL-0550_RLatLon0.03_PT000H.grib2 2026-05-04 06:03 964K
20260504T00Z_MSC_CAPS_DewPointDepression_IsbL-0600_RLatLon0.03_PT000H.grib2 2026-05-04 06:03 1.0M
20260504T00Z_MSC_CAPS_DewPointDepression_IsbL-0650_RLatLon0.03_PT000H.grib2 2026-05-04 06:03 1.0M
20260504T00Z_MSC_CAPS_DewPointDepression_IsbL-0700_RLatLon0.03_PT000H.grib2 2026-05-04 06:03 1.0M
20260504T00Z_MSC_CAPS_DewPointDepression_IsbL-0750_RLatLon0.03_PT000H.grib2 2026-05-04 06:03 1.0M
20260504T00Z_MSC_CAPS_DewPointDepression_IsbL-0800_RLatLon0.03_PT000H.grib2 2026-05-04 06:03 1.1M
20260504T00Z_MSC_CAPS_DewPointDepression_IsbL-0850_RLatLon0.03_PT000H.grib2 2026-05-04 06:03 1.1M
20260504T00Z_MSC_CAPS_DewPointDepression_IsbL-0875_RLatLon0.03_PT000H.grib2 2026-05-04 06:03 1.1M
20260504T00Z_MSC_CAPS_DewPointDepression_IsbL-0900_RLatLon0.03_PT000H.grib2 2026-05-04 06:03 1.1M
20260504T00Z_MSC_CAPS_DewPointDepression_IsbL-0925_RLatLon0.03_PT000H.grib2 2026-05-04 06:03 1.1M
20260504T00Z_MSC_CAPS_DewPointDepression_IsbL-0950_RLatLon0.03_PT000H.grib2 2026-05-04 06:03 1.1M
20260504T00Z_MSC_CAPS_DewPointDepression_IsbL-0970_RLatLon0.03_PT000H.grib2 2026-05-04 06:03 1.1M
20260504T00Z_MSC_CAPS_DewPointDepression_IsbL-0985_RLatLon0.03_PT000H.grib2 2026-05-04 06:03 1.1M
20260504T00Z_MSC_CAPS_DewPointDepression_IsbL-1000_RLatLon0.03_PT000H.grib2 2026-05-04 06:03 1.1M
20260504T00Z_MSC_CAPS_DewPointDepression_IsbL-1015_RLatLon0.03_PT000H.grib2 2026-05-04 06:03 1.0M
20260504T00Z_MSC_CAPS_DewPoint_AGL-120m_RLatLon0.03_PT000H.grib2 2026-05-04 06:03 3.0M
20260504T00Z_MSC_CAPS_DewPoint_AGL-2m_RLatLon0.03_PT000H.grib2 2026-05-04 06:03 1.2M
20260504T00Z_MSC_CAPS_DewPoint_AGL-40m_RLatLon0.03_PT000H.grib2 2026-05-04 06:03 3.1M
20260504T00Z_MSC_CAPS_DewPoint_AGL-80m_RLatLon0.03_PT000H.grib2 2026-05-04 06:03 3.0M
20260504T00Z_MSC_CAPS_DownwardLongwaveRadiationFlux-Accum_Sfc_RLatLon0.03_PT000H.grib2 2026-05-04 06:03 217
20260504T00Z_MSC_CAPS_DownwardShortwaveRadiationFlux-Accum_NTAtm_RLatLon0.03_PT000H.grib2 2026-05-04 06:03 217
20260504T00Z_MSC_CAPS_DownwardShortwaveRadiationFlux-Accum_Sfc_RLatLon0.03_PT000H.grib2 2026-05-04 06:03 217
20260504T00Z_MSC_CAPS_GeopotentialHeight_IsbL-0050_RLatLon0.03_PT000H.grib2 2026-05-04 06:03 710K
20260504T00Z_MSC_CAPS_GeopotentialHeight_IsbL-0100_RLatLon0.03_PT000H.grib2 2026-05-04 06:03 801K
20260504T00Z_MSC_CAPS_GeopotentialHeight_IsbL-0150_RLatLon0.03_PT000H.grib2 2026-05-04 06:03 737K
20260504T00Z_MSC_CAPS_GeopotentialHeight_IsbL-0175_RLatLon0.03_PT000H.grib2 2026-05-04 06:03 746K
20260504T00Z_MSC_CAPS_GeopotentialHeight_IsbL-0200_RLatLon0.03_PT000H.grib2 2026-05-04 06:03 756K
20260504T00Z_MSC_CAPS_GeopotentialHeight_IsbL-0225_RLatLon0.03_PT000H.grib2 2026-05-04 06:03 769K
20260504T00Z_MSC_CAPS_GeopotentialHeight_IsbL-0250_RLatLon0.03_PT000H.grib2 2026-05-04 06:03 777K
20260504T00Z_MSC_CAPS_GeopotentialHeight_IsbL-0275_RLatLon0.03_PT000H.grib2 2026-05-04 06:03 782K
20260504T00Z_MSC_CAPS_GeopotentialHeight_IsbL-0300_RLatLon0.03_PT000H.grib2 2026-05-04 06:03 785K
20260504T00Z_MSC_CAPS_GeopotentialHeight_IsbL-0350_RLatLon0.03_PT000H.grib2 2026-05-04 06:03 784K
20260504T00Z_MSC_CAPS_GeopotentialHeight_IsbL-0400_RLatLon0.03_PT000H.grib2 2026-05-04 06:03 784K
20260504T00Z_MSC_CAPS_GeopotentialHeight_IsbL-0450_RLatLon0.03_PT000H.grib2 2026-05-04 06:03 776K
20260504T00Z_MSC_CAPS_GeopotentialHeight_IsbL-0500_RLatLon0.03_PT000H.grib2 2026-05-04 06:03 772K
20260504T00Z_MSC_CAPS_GeopotentialHeight_IsbL-0550_RLatLon0.03_PT000H.grib2 2026-05-04 06:03 766K
20260504T00Z_MSC_CAPS_GeopotentialHeight_IsbL-0600_RLatLon0.03_PT000H.grib2 2026-05-04 06:03 646K
20260504T00Z_MSC_CAPS_GeopotentialHeight_IsbL-0650_RLatLon0.03_PT000H.grib2 2026-05-04 06:03 641K
20260504T00Z_MSC_CAPS_GeopotentialHeight_IsbL-0700_RLatLon0.03_PT000H.grib2 2026-05-04 06:03 641K
20260504T00Z_MSC_CAPS_GeopotentialHeight_IsbL-0750_RLatLon0.03_PT000H.grib2 2026-05-04 06:03 825K
20260504T00Z_MSC_CAPS_GeopotentialHeight_IsbL-0800_RLatLon0.03_PT000H.grib2 2026-05-04 06:03 826K
20260504T00Z_MSC_CAPS_GeopotentialHeight_IsbL-0850_RLatLon0.03_PT000H.grib2 2026-05-04 06:03 831K
20260504T00Z_MSC_CAPS_GeopotentialHeight_IsbL-0875_RLatLon0.03_PT000H.grib2 2026-05-04 06:03 818K
20260504T00Z_MSC_CAPS_GeopotentialHeight_IsbL-0900_RLatLon0.03_PT000H.grib2 2026-05-04 06:03 835K
20260504T00Z_MSC_CAPS_GeopotentialHeight_IsbL-0925_RLatLon0.03_PT000H.grib2 2026-05-04 06:03 825K
20260504T00Z_MSC_CAPS_GeopotentialHeight_IsbL-0950_RLatLon0.03_PT000H.grib2 2026-05-04 06:03 832K
20260504T00Z_MSC_CAPS_GeopotentialHeight_IsbL-0970_RLatLon0.03_PT000H.grib2 2026-05-04 06:03 845K
20260504T00Z_MSC_CAPS_GeopotentialHeight_IsbL-0985_RLatLon0.03_PT000H.grib2 2026-05-04 06:03 850K
20260504T00Z_MSC_CAPS_GeopotentialHeight_IsbL-1000_RLatLon0.03_PT000H.grib2 2026-05-04 06:03 855K
20260504T00Z_MSC_CAPS_GeopotentialHeight_IsbL-1015_RLatLon0.03_PT000H.grib2 2026-05-04 06:03 671K
20260504T00Z_MSC_CAPS_GeopotentialHeight_Sfc_RLatLon0.03_PT000H.grib2 2026-05-04 06:03 887K
20260504T00Z_MSC_CAPS_LandWaterProportion_Sfc_RLatLon0.03_PT000H.grib2 2026-05-04 06:03 2.0M
20260504T00Z_MSC_CAPS_LatentHeatNetFlux_Sfc_RLatLon0.03_PT000H.grib2 2026-05-04 06:03 1.6M
20260504T00Z_MSC_CAPS_LiftedIndex-MU-VT_IsbL-0500_RLatLon0.03_PT000H.grib2 2026-05-04 06:03 3.2M
20260504T00Z_MSC_CAPS_NetLongwaveRadiationFlux-Accum_Sfc_RLatLon0.03_PT000H.grib2 2026-05-04 06:03 217
20260504T00Z_MSC_CAPS_NetShortwaveRadiationFlux-Accum_Sfc_RLatLon0.03_PT000H.grib2 2026-05-04 06:03 217
20260504T00Z_MSC_CAPS_PlanetaryBoundaryLayerHeight_Sfc_RLatLon0.03_PT000H.grib2 2026-05-04 06:03 2.5M
20260504T00Z_MSC_CAPS_Pressure_MSL_RLatLon0.03_PT000H.grib2 2026-05-04 06:03 892K
20260504T00Z_MSC_CAPS_Pressure_Sfc_RLatLon0.03_PT000H.grib2 2026-05-04 06:03 1.0M
20260504T00Z_MSC_CAPS_RadiativeTemp_Sfc_RLatLon0.03_PT000H.grib2 2026-05-04 06:03 2.1M
20260504T00Z_MSC_CAPS_RelativeHumidity_AGL-120m_RLatLon0.03_PT000H.grib2 2026-05-04 06:03 2.2M
20260504T00Z_MSC_CAPS_RelativeHumidity_AGL-2m_RLatLon0.03_PT000H.grib2 2026-05-04 06:03 2.1M
20260504T00Z_MSC_CAPS_RelativeHumidity_AGL-40m_RLatLon0.03_PT000H.grib2 2026-05-04 06:03 2.3M
20260504T00Z_MSC_CAPS_RelativeHumidity_AGL-80m_RLatLon0.03_PT000H.grib2 2026-05-04 06:03 2.2M
20260504T00Z_MSC_CAPS_RelativeHumidity_IsbL-0050_RLatLon0.03_PT000H.grib2 2026-05-04 06:03 707K
20260504T00Z_MSC_CAPS_RelativeHumidity_IsbL-0100_RLatLon0.03_PT000H.grib2 2026-05-04 06:03 811K
20260504T00Z_MSC_CAPS_RelativeHumidity_IsbL-0150_RLatLon0.03_PT000H.grib2 2026-05-04 06:03 580K
20260504T00Z_MSC_CAPS_RelativeHumidity_IsbL-0175_RLatLon0.03_PT000H.grib2 2026-05-04 06:03 439K
20260504T00Z_MSC_CAPS_RelativeHumidity_IsbL-0200_RLatLon0.03_PT000H.grib2 2026-05-04 06:03 598K
20260504T00Z_MSC_CAPS_RelativeHumidity_IsbL-0225_RLatLon0.03_PT000H.grib2 2026-05-04 06:03 840K
20260504T00Z_MSC_CAPS_RelativeHumidity_IsbL-0250_RLatLon0.03_PT000H.grib2 2026-05-04 06:03 1.0M
20260504T00Z_MSC_CAPS_RelativeHumidity_IsbL-0275_RLatLon0.03_PT000H.grib2 2026-05-04 06:03 1.2M
20260504T00Z_MSC_CAPS_RelativeHumidity_IsbL-0300_RLatLon0.03_PT000H.grib2 2026-05-04 06:03 1.5M
20260504T00Z_MSC_CAPS_RelativeHumidity_IsbL-0350_RLatLon0.03_PT000H.grib2 2026-05-04 06:03 1.7M
20260504T00Z_MSC_CAPS_RelativeHumidity_IsbL-0400_RLatLon0.03_PT000H.grib2 2026-05-04 06:03 1.8M
20260504T00Z_MSC_CAPS_RelativeHumidity_IsbL-0450_RLatLon0.03_PT000H.grib2 2026-05-04 06:03 1.7M
20260504T00Z_MSC_CAPS_RelativeHumidity_IsbL-0500_RLatLon0.03_PT000H.grib2 2026-05-04 06:03 1.8M
20260504T00Z_MSC_CAPS_RelativeHumidity_IsbL-0550_RLatLon0.03_PT000H.grib2 2026-05-04 06:03 1.7M
20260504T00Z_MSC_CAPS_RelativeHumidity_IsbL-0600_RLatLon0.03_PT000H.grib2 2026-05-04 06:03 1.9M
20260504T00Z_MSC_CAPS_RelativeHumidity_IsbL-0650_RLatLon0.03_PT000H.grib2 2026-05-04 06:03 1.9M
20260504T00Z_MSC_CAPS_RelativeHumidity_IsbL-0700_RLatLon0.03_PT000H.grib2 2026-05-04 06:03 1.9M
20260504T00Z_MSC_CAPS_RelativeHumidity_IsbL-0750_RLatLon0.03_PT000H.grib2 2026-05-04 06:03 2.1M
20260504T00Z_MSC_CAPS_RelativeHumidity_IsbL-0800_RLatLon0.03_PT000H.grib2 2026-05-04 06:03 2.1M
20260504T00Z_MSC_CAPS_RelativeHumidity_IsbL-0850_RLatLon0.03_PT000H.grib2 2026-05-04 06:03 2.1M
20260504T00Z_MSC_CAPS_RelativeHumidity_IsbL-0875_RLatLon0.03_PT000H.grib2 2026-05-04 06:03 2.1M
20260504T00Z_MSC_CAPS_RelativeHumidity_IsbL-0900_RLatLon0.03_PT000H.grib2 2026-05-04 06:03 2.1M
20260504T00Z_MSC_CAPS_RelativeHumidity_IsbL-0925_RLatLon0.03_PT000H.grib2 2026-05-04 06:03 2.1M
20260504T00Z_MSC_CAPS_RelativeHumidity_IsbL-0950_RLatLon0.03_PT000H.grib2 2026-05-04 06:03 2.1M
20260504T00Z_MSC_CAPS_RelativeHumidity_IsbL-0970_RLatLon0.03_PT000H.grib2 2026-05-04 06:03 2.1M
20260504T00Z_MSC_CAPS_RelativeHumidity_IsbL-0985_RLatLon0.03_PT000H.grib2 2026-05-04 06:03 2.1M
20260504T00Z_MSC_CAPS_RelativeHumidity_IsbL-1000_RLatLon0.03_PT000H.grib2 2026-05-04 06:03 2.1M
20260504T00Z_MSC_CAPS_RelativeHumidity_IsbL-1015_RLatLon0.03_PT000H.grib2 2026-05-04 06:03 2.0M
20260504T00Z_MSC_CAPS_Runoff-Accum_Sfc_RLatLon0.03_PT000H.grib2 2026-05-04 06:03 193
20260504T00Z_MSC_CAPS_SeaIceFraction_Sfc_RLatLon0.03_PT000H.grib2 2026-05-04 06:03 2.3M
20260504T00Z_MSC_CAPS_SeaWaterTemp_Sfc_RLatLon0.03_PT000H.grib2 2026-05-04 06:03 2.0M
20260504T00Z_MSC_CAPS_SensibleHeatNetFlux_Sfc_RLatLon0.03_PT000H.grib2 2026-05-04 06:03 1.8M
20260504T00Z_MSC_CAPS_ShowalterIndex_IsbL-0500_RLatLon0.03_PT000H.grib2 2026-05-04 06:03 4.2M
20260504T00Z_MSC_CAPS_SnowDensity_Sfc_RLatLon0.03_PT000H.grib2 2026-05-04 06:03 1.0M
20260504T00Z_MSC_CAPS_SnowDepthWaterEquivalent_Sfc_RLatLon0.03_PT000H.grib2 2026-05-04 06:03 650K
20260504T00Z_MSC_CAPS_SnowDepth_Sfc_RLatLon0.03_PT000H.grib2 2026-05-04 06:03 1.1M
20260504T00Z_MSC_CAPS_SoilTemp_DBS-0to10cm_RLatLon0.03_PT000H.grib2 2026-05-04 06:03 1.0M
20260504T00Z_MSC_CAPS_SoilTemp_Sfc_RLatLon0.03_PT000H.grib2 2026-05-04 06:03 1.3M
20260504T00Z_MSC_CAPS_SoilVolumetricIceContent_Sfc_RLatLon0.03_PT000H.grib2 2026-05-04 06:03 1.2M
20260504T00Z_MSC_CAPS_SoilVolumetricWaterContent_DBS-0to10cm_RLatLon0.03_PT000H.grib2 2026-05-04 06:03 1.1M
20260504T00Z_MSC_CAPS_SoilVolumetricWaterContent_DBS-0to1cm_RLatLon0.03_PT000H.grib2 2026-05-04 06:03 1.6M
20260504T00Z_MSC_CAPS_SpecificHumidity_AGL-120m_RLatLon0.03_PT000H.grib2 2026-05-04 06:03 1.3M
20260504T00Z_MSC_CAPS_SpecificHumidity_AGL-2m_RLatLon0.03_PT000H.grib2 2026-05-04 06:03 1.2M
20260504T00Z_MSC_CAPS_SpecificHumidity_AGL-40m_RLatLon0.03_PT000H.grib2 2026-05-04 06:03 1.4M
20260504T00Z_MSC_CAPS_SpecificHumidity_AGL-80m_RLatLon0.03_PT000H.grib2 2026-05-04 06:03 1.3M
20260504T00Z_MSC_CAPS_SpecificHumidity_IsbL-0050_RLatLon0.03_PT000H.grib2 2026-05-04 06:03 834K
20260504T00Z_MSC_CAPS_SpecificHumidity_IsbL-0100_RLatLon0.03_PT000H.grib2 2026-05-04 06:03 886K
20260504T00Z_MSC_CAPS_SpecificHumidity_IsbL-0150_RLatLon0.03_PT000H.grib2 2026-05-04 06:03 715K
20260504T00Z_MSC_CAPS_SpecificHumidity_IsbL-0175_RLatLon0.03_PT000H.grib2 2026-05-04 06:03 911K
20260504T00Z_MSC_CAPS_SpecificHumidity_IsbL-0200_RLatLon0.03_PT000H.grib2 2026-05-04 06:03 909K
20260504T00Z_MSC_CAPS_SpecificHumidity_IsbL-0225_RLatLon0.03_PT000H.grib2 2026-05-04 06:03 832K
20260504T00Z_MSC_CAPS_SpecificHumidity_IsbL-0250_RLatLon0.03_PT000H.grib2 2026-05-04 06:03 934K
20260504T00Z_MSC_CAPS_SpecificHumidity_IsbL-0275_RLatLon0.03_PT000H.grib2 2026-05-04 06:03 938K
20260504T00Z_MSC_CAPS_SpecificHumidity_IsbL-0300_RLatLon0.03_PT000H.grib2 2026-05-04 06:03 899K
20260504T00Z_MSC_CAPS_SpecificHumidity_IsbL-0350_RLatLon0.03_PT000H.grib2 2026-05-04 06:03 780K
20260504T00Z_MSC_CAPS_SpecificHumidity_IsbL-0400_RLatLon0.03_PT000H.grib2 2026-05-04 06:03 773K
20260504T00Z_MSC_CAPS_SpecificHumidity_IsbL-0450_RLatLon0.03_PT000H.grib2 2026-05-04 06:03 869K
20260504T00Z_MSC_CAPS_SpecificHumidity_IsbL-0500_RLatLon0.03_PT000H.grib2 2026-05-04 06:03 810K
20260504T00Z_MSC_CAPS_SpecificHumidity_IsbL-0550_RLatLon0.03_PT000H.grib2 2026-05-04 06:03 878K
20260504T00Z_MSC_CAPS_SpecificHumidity_IsbL-0600_RLatLon0.03_PT000H.grib2 2026-05-04 06:03 1.0M
20260504T00Z_MSC_CAPS_SpecificHumidity_IsbL-0650_RLatLon0.03_PT000H.grib2 2026-05-04 06:03 853K
20260504T00Z_MSC_CAPS_SpecificHumidity_IsbL-0700_RLatLon0.03_PT000H.grib2 2026-05-04 06:03 917K
20260504T00Z_MSC_CAPS_SpecificHumidity_IsbL-0750_RLatLon0.03_PT000H.grib2 2026-05-04 06:03 1.1M
20260504T00Z_MSC_CAPS_SpecificHumidity_IsbL-0800_RLatLon0.03_PT000H.grib2 2026-05-04 06:03 1.2M
20260504T00Z_MSC_CAPS_SpecificHumidity_IsbL-0850_RLatLon0.03_PT000H.grib2 2026-05-04 06:03 1.2M
20260504T00Z_MSC_CAPS_SpecificHumidity_IsbL-0875_RLatLon0.03_PT000H.grib2 2026-05-04 06:03 1.3M
20260504T00Z_MSC_CAPS_SpecificHumidity_IsbL-0900_RLatLon0.03_PT000H.grib2 2026-05-04 06:03 1.3M
20260504T00Z_MSC_CAPS_SpecificHumidity_IsbL-0925_RLatLon0.03_PT000H.grib2 2026-05-04 06:03 1.3M
20260504T00Z_MSC_CAPS_SpecificHumidity_IsbL-0950_RLatLon0.03_PT000H.grib2 2026-05-04 06:03 1.3M
20260504T00Z_MSC_CAPS_SpecificHumidity_IsbL-0970_RLatLon0.03_PT000H.grib2 2026-05-04 06:03 1.3M
20260504T00Z_MSC_CAPS_SpecificHumidity_IsbL-0985_RLatLon0.03_PT000H.grib2 2026-05-04 06:03 1.3M
20260504T00Z_MSC_CAPS_SpecificHumidity_IsbL-1000_RLatLon0.03_PT000H.grib2 2026-05-04 06:03 1.3M
20260504T00Z_MSC_CAPS_SpecificHumidity_IsbL-1015_RLatLon0.03_PT000H.grib2 2026-05-04 06:03 1.2M
20260504T00Z_MSC_CAPS_SpecificHumidity_Sfc_RLatLon0.03_PT000H.grib2 2026-05-04 06:03 2.0M
20260504T00Z_MSC_CAPS_StormRelativeHelicity_Sfc_RLatLon0.03_PT000H.grib2 2026-05-04 06:03 2.1M
20260504T00Z_MSC_CAPS_Thickness_IsbL-1000to0500_RLatLon0.03_PT000H.grib2 2026-05-04 06:03 461K
20260504T00Z_MSC_CAPS_TotalCloudCover_Sfc_RLatLon0.03_PT000H.grib2 2026-05-04 06:03 2.3M
20260504T00Z_MSC_CAPS_UpwardLongwaveRadiationFlux_NTAtm_RLatLon0.03_PT000H.grib2 2026-05-04 06:03 2.4M
20260504T00Z_MSC_CAPS_UpwardShortwaveRadiationFlux_NTAtm_RLatLon0.03_PT000H.grib2 2026-05-04 06:03 1.3M
20260504T00Z_MSC_CAPS_VerticalVelocity_IsbL-0250_RLatLon0.03_PT000H.grib2 2026-05-04 06:03 1.1M
20260504T00Z_MSC_CAPS_VerticalVelocity_IsbL-0500_RLatLon0.03_PT000H.grib2 2026-05-04 06:03 1.1M
20260504T00Z_MSC_CAPS_VerticalVelocity_IsbL-0700_RLatLon0.03_PT000H.grib2 2026-05-04 06:03 951K
20260504T00Z_MSC_CAPS_VerticalVelocity_IsbL-0850_RLatLon0.03_PT000H.grib2 2026-05-04 06:03 1.0M
20260504T00Z_MSC_CAPS_VerticalVelocity_IsbL-1000_RLatLon0.03_PT000H.grib2 2026-05-04 06:03 1.0M
20260504T00Z_MSC_CAPS_WindDir_AGL-10m_RLatLon0.03_PT000H.grib2 2026-05-04 06:03 1.7M
20260504T00Z_MSC_CAPS_WindDir_AGL-120m_RLatLon0.03_PT000H.grib2 2026-05-04 06:03 1.0M
20260504T00Z_MSC_CAPS_WindDir_AGL-40m_RLatLon0.03_PT000H.grib2 2026-05-04 06:03 1.1M
20260504T00Z_MSC_CAPS_WindDir_AGL-80m_RLatLon0.03_PT000H.grib2 2026-05-04 06:03 1.0M
20260504T00Z_MSC_CAPS_WindDir_IsbL-0050_RLatLon0.03_PT000H.grib2 2026-05-04 06:03 1.0M
20260504T00Z_MSC_CAPS_WindDir_IsbL-0100_RLatLon0.03_PT000H.grib2 2026-05-04 06:03 1.0M
20260504T00Z_MSC_CAPS_WindDir_IsbL-0150_RLatLon0.03_PT000H.grib2 2026-05-04 06:03 1.0M
20260504T00Z_MSC_CAPS_WindDir_IsbL-0175_RLatLon0.03_PT000H.grib2 2026-05-04 06:03 1.1M
20260504T00Z_MSC_CAPS_WindDir_IsbL-0200_RLatLon0.03_PT000H.grib2 2026-05-04 06:03 1.1M
20260504T00Z_MSC_CAPS_WindDir_IsbL-0225_RLatLon0.03_PT000H.grib2 2026-05-04 06:03 1.1M
20260504T00Z_MSC_CAPS_WindDir_IsbL-0250_RLatLon0.03_PT000H.grib2 2026-05-04 06:03 1.1M
20260504T00Z_MSC_CAPS_WindDir_IsbL-0275_RLatLon0.03_PT000H.grib2 2026-05-04 06:03 1.0M
20260504T00Z_MSC_CAPS_WindDir_IsbL-0300_RLatLon0.03_PT000H.grib2 2026-05-04 06:03 1.0M
20260504T00Z_MSC_CAPS_WindDir_IsbL-0350_RLatLon0.03_PT000H.grib2 2026-05-04 06:03 1.1M
20260504T00Z_MSC_CAPS_WindDir_IsbL-0400_RLatLon0.03_PT000H.grib2 2026-05-04 06:03 1.1M
20260504T00Z_MSC_CAPS_WindDir_IsbL-0450_RLatLon0.03_PT000H.grib2 2026-05-04 06:03 1.1M
20260504T00Z_MSC_CAPS_WindDir_IsbL-0500_RLatLon0.03_PT000H.grib2 2026-05-04 06:03 1.1M
20260504T00Z_MSC_CAPS_WindDir_IsbL-0550_RLatLon0.03_PT000H.grib2 2026-05-04 06:03 1.1M
20260504T00Z_MSC_CAPS_WindDir_IsbL-0600_RLatLon0.03_PT000H.grib2 2026-05-04 06:03 1.1M
20260504T00Z_MSC_CAPS_WindDir_IsbL-0650_RLatLon0.03_PT000H.grib2 2026-05-04 06:03 1.1M
20260504T00Z_MSC_CAPS_WindDir_IsbL-0700_RLatLon0.03_PT000H.grib2 2026-05-04 06:03 1.2M
20260504T00Z_MSC_CAPS_WindDir_IsbL-0750_RLatLon0.03_PT000H.grib2 2026-05-04 06:03 1.3M
20260504T00Z_MSC_CAPS_WindDir_IsbL-0800_RLatLon0.03_PT000H.grib2 2026-05-04 06:03 1.3M
20260504T00Z_MSC_CAPS_WindDir_IsbL-0850_RLatLon0.03_PT000H.grib2 2026-05-04 06:03 1.5M
20260504T00Z_MSC_CAPS_WindDir_IsbL-0875_RLatLon0.03_PT000H.grib2 2026-05-04 06:03 1.6M
20260504T00Z_MSC_CAPS_WindDir_IsbL-0900_RLatLon0.03_PT000H.grib2 2026-05-04 06:03 1.5M
20260504T00Z_MSC_CAPS_WindDir_IsbL-0925_RLatLon0.03_PT000H.grib2 2026-05-04 06:03 1.6M
20260504T00Z_MSC_CAPS_WindDir_IsbL-0950_RLatLon0.03_PT000H.grib2 2026-05-04 06:03 1.6M
20260504T00Z_MSC_CAPS_WindDir_IsbL-0970_RLatLon0.03_PT000H.grib2 2026-05-04 06:03 1.7M
20260504T00Z_MSC_CAPS_WindDir_IsbL-0985_RLatLon0.03_PT000H.grib2 2026-05-04 06:03 1.7M
20260504T00Z_MSC_CAPS_WindDir_IsbL-1000_RLatLon0.03_PT000H.grib2 2026-05-04 06:03 1.7M
20260504T00Z_MSC_CAPS_WindDir_IsbL-1015_RLatLon0.03_PT000H.grib2 2026-05-04 06:03 1.7M
20260504T00Z_MSC_CAPS_WindGust-Max_AGL-10m_RLatLon0.03_PT000H.grib2 2026-05-04 06:03 1.3M
20260504T00Z_MSC_CAPS_WindGust-Min_AGL-10m_RLatLon0.03_PT000H.grib2 2026-05-04 06:03 1.7M
20260504T00Z_MSC_CAPS_WindGust_AGL-10m_RLatLon0.03_PT000H.grib2 2026-05-04 06:03 1.9M
20260504T00Z_MSC_CAPS_WindSpeed_AGL-10m_RLatLon0.03_PT000H.grib2 2026-05-04 06:03 1.3M
20260504T00Z_MSC_CAPS_WindSpeed_AGL-120m_RLatLon0.03_PT000H.grib2 2026-05-04 06:03 935K
20260504T00Z_MSC_CAPS_WindSpeed_AGL-40m_RLatLon0.03_PT000H.grib2 2026-05-04 06:03 1.3M
20260504T00Z_MSC_CAPS_WindSpeed_AGL-80m_RLatLon0.03_PT000H.grib2 2026-05-04 06:03 1.2M
20260504T00Z_MSC_CAPS_WindSpeed_IsbL-0050_RLatLon0.03_PT000H.grib2 2026-05-04 06:03 920K
20260504T00Z_MSC_CAPS_WindSpeed_IsbL-0100_RLatLon0.03_PT000H.grib2 2026-05-04 06:03 919K
20260504T00Z_MSC_CAPS_WindSpeed_IsbL-0150_RLatLon0.03_PT000H.grib2 2026-05-04 06:03 1.0M
20260504T00Z_MSC_CAPS_WindSpeed_IsbL-0175_RLatLon0.03_PT000H.grib2 2026-05-04 06:03 1.2M
20260504T00Z_MSC_CAPS_WindSpeed_IsbL-0200_RLatLon0.03_PT000H.grib2 2026-05-04 06:03 885K
20260504T00Z_MSC_CAPS_WindSpeed_IsbL-0225_RLatLon0.03_PT000H.grib2 2026-05-04 06:03 902K
20260504T00Z_MSC_CAPS_WindSpeed_IsbL-0250_RLatLon0.03_PT000H.grib2 2026-05-04 06:03 920K
20260504T00Z_MSC_CAPS_WindSpeed_IsbL-0275_RLatLon0.03_PT000H.grib2 2026-05-04 06:03 928K
20260504T00Z_MSC_CAPS_WindSpeed_IsbL-0300_RLatLon0.03_PT000H.grib2 2026-05-04 06:03 1.0M
20260504T00Z_MSC_CAPS_WindSpeed_IsbL-0350_RLatLon0.03_PT000H.grib2 2026-05-04 06:03 946K
20260504T00Z_MSC_CAPS_WindSpeed_IsbL-0400_RLatLon0.03_PT000H.grib2 2026-05-04 06:03 949K
20260504T00Z_MSC_CAPS_WindSpeed_IsbL-0450_RLatLon0.03_PT000H.grib2 2026-05-04 06:03 949K
20260504T00Z_MSC_CAPS_WindSpeed_IsbL-0500_RLatLon0.03_PT000H.grib2 2026-05-04 06:03 1.3M
20260504T00Z_MSC_CAPS_WindSpeed_IsbL-0550_RLatLon0.03_PT000H.grib2 2026-05-04 06:03 1.3M
20260504T00Z_MSC_CAPS_WindSpeed_IsbL-0600_RLatLon0.03_PT000H.grib2 2026-05-04 06:03 1.2M
20260504T00Z_MSC_CAPS_WindSpeed_IsbL-0650_RLatLon0.03_PT000H.grib2 2026-05-04 06:03 1.2M
20260504T00Z_MSC_CAPS_WindSpeed_IsbL-0700_RLatLon0.03_PT000H.grib2 2026-05-04 06:03 1.3M
20260504T00Z_MSC_CAPS_WindSpeed_IsbL-0750_RLatLon0.03_PT000H.grib2 2026-05-04 06:03 1.3M
20260504T00Z_MSC_CAPS_WindSpeed_IsbL-0800_RLatLon0.03_PT000H.grib2 2026-05-04 06:03 1.2M
20260504T00Z_MSC_CAPS_WindSpeed_IsbL-0850_RLatLon0.03_PT000H.grib2 2026-05-04 06:03 1.4M
20260504T00Z_MSC_CAPS_WindSpeed_IsbL-0875_RLatLon0.03_PT000H.grib2 2026-05-04 06:03 1.4M
20260504T00Z_MSC_CAPS_WindSpeed_IsbL-0900_RLatLon0.03_PT000H.grib2 2026-05-04 06:03 1.4M
20260504T00Z_MSC_CAPS_WindSpeed_IsbL-0925_RLatLon0.03_PT000H.grib2 2026-05-04 06:03 1.5M
20260504T00Z_MSC_CAPS_WindSpeed_IsbL-0950_RLatLon0.03_PT000H.grib2 2026-05-04 06:03 1.5M
20260504T00Z_MSC_CAPS_WindSpeed_IsbL-0970_RLatLon0.03_PT000H.grib2 2026-05-04 06:03 1.4M
20260504T00Z_MSC_CAPS_WindSpeed_IsbL-0985_RLatLon0.03_PT000H.grib2 2026-05-04 06:03 1.4M
20260504T00Z_MSC_CAPS_WindSpeed_IsbL-1000_RLatLon0.03_PT000H.grib2 2026-05-04 06:03 1.4M
20260504T00Z_MSC_CAPS_WindSpeed_IsbL-1015_RLatLon0.03_PT000H.grib2 2026-05-04 06:03 1.3M
20260504T00Z_MSC_CAPS_WindU_AGL-10m_RLatLon0.03_PT000H.grib2 2026-05-04 06:03 1.1M
20260504T00Z_MSC_CAPS_WindU_AGL-120m_RLatLon0.03_PT000H.grib2 2026-05-04 06:03 1.0M
20260504T00Z_MSC_CAPS_WindU_AGL-40m_RLatLon0.03_PT000H.grib2 2026-05-04 06:03 1.0M
20260504T00Z_MSC_CAPS_WindU_AGL-80m_RLatLon0.03_PT000H.grib2 2026-05-04 06:03 1.0M
20260504T00Z_MSC_CAPS_WindU_IsbL-0050_RLatLon0.03_PT000H.grib2 2026-05-04 06:03 924K
20260504T00Z_MSC_CAPS_WindU_IsbL-0100_RLatLon0.03_PT000H.grib2 2026-05-04 06:03 751K
20260504T00Z_MSC_CAPS_WindU_IsbL-0150_RLatLon0.03_PT000H.grib2 2026-05-04 06:03 665K
20260504T00Z_MSC_CAPS_WindU_IsbL-0175_RLatLon0.03_PT000H.grib2 2026-05-04 06:03 804K
20260504T00Z_MSC_CAPS_WindU_IsbL-0200_RLatLon0.03_PT000H.grib2 2026-05-04 06:03 819K
20260504T00Z_MSC_CAPS_WindU_IsbL-0225_RLatLon0.03_PT000H.grib2 2026-05-04 06:03 840K
20260504T00Z_MSC_CAPS_WindU_IsbL-0250_RLatLon0.03_PT000H.grib2 2026-05-04 06:03 861K
20260504T00Z_MSC_CAPS_WindU_IsbL-0275_RLatLon0.03_PT000H.grib2 2026-05-04 06:03 870K
20260504T00Z_MSC_CAPS_WindU_IsbL-0300_RLatLon0.03_PT000H.grib2 2026-05-04 06:03 683K
20260504T00Z_MSC_CAPS_WindU_IsbL-0350_RLatLon0.03_PT000H.grib2 2026-05-04 06:03 889K
20260504T00Z_MSC_CAPS_WindU_IsbL-0400_RLatLon0.03_PT000H.grib2 2026-05-04 06:03 892K
20260504T00Z_MSC_CAPS_WindU_IsbL-0450_RLatLon0.03_PT000H.grib2 2026-05-04 06:03 893K
20260504T00Z_MSC_CAPS_WindU_IsbL-0500_RLatLon0.03_PT000H.grib2 2026-05-04 06:03 896K
20260504T00Z_MSC_CAPS_WindU_IsbL-0550_RLatLon0.03_PT000H.grib2 2026-05-04 06:03 900K
20260504T00Z_MSC_CAPS_WindU_IsbL-0600_RLatLon0.03_PT000H.grib2 2026-05-04 06:03 780K
20260504T00Z_MSC_CAPS_WindU_IsbL-0650_RLatLon0.03_PT000H.grib2 2026-05-04 06:03 797K
20260504T00Z_MSC_CAPS_WindU_IsbL-0700_RLatLon0.03_PT000H.grib2 2026-05-04 06:03 824K
20260504T00Z_MSC_CAPS_WindU_IsbL-0750_RLatLon0.03_PT000H.grib2 2026-05-04 06:03 856K
20260504T00Z_MSC_CAPS_WindU_IsbL-0800_RLatLon0.03_PT000H.grib2 2026-05-04 06:03 889K
20260504T00Z_MSC_CAPS_WindU_IsbL-0850_RLatLon0.03_PT000H.grib2 2026-05-04 06:03 1.0M
20260504T00Z_MSC_CAPS_WindU_IsbL-0875_RLatLon0.03_PT000H.grib2 2026-05-04 06:03 1.0M
20260504T00Z_MSC_CAPS_WindU_IsbL-0900_RLatLon0.03_PT000H.grib2 2026-05-04 06:03 964K
20260504T00Z_MSC_CAPS_WindU_IsbL-0925_RLatLon0.03_PT000H.grib2 2026-05-04 06:03 971K
20260504T00Z_MSC_CAPS_WindU_IsbL-0950_RLatLon0.03_PT000H.grib2 2026-05-04 06:03 1.0M
20260504T00Z_MSC_CAPS_WindU_IsbL-0970_RLatLon0.03_PT000H.grib2 2026-05-04 06:03 1.0M
20260504T00Z_MSC_CAPS_WindU_IsbL-0985_RLatLon0.03_PT000H.grib2 2026-05-04 06:03 1.0M
20260504T00Z_MSC_CAPS_WindU_IsbL-1000_RLatLon0.03_PT000H.grib2 2026-05-04 06:03 1.2M
20260504T00Z_MSC_CAPS_WindU_IsbL-1015_RLatLon0.03_PT000H.grib2 2026-05-04 06:03 1.1M
20260504T00Z_MSC_CAPS_WindV_AGL-10m_RLatLon0.03_PT000H.grib2 2026-05-04 06:03 1.2M
20260504T00Z_MSC_CAPS_WindV_AGL-120m_RLatLon0.03_PT000H.grib2 2026-05-04 06:03 968K
20260504T00Z_MSC_CAPS_WindV_AGL-40m_RLatLon0.03_PT000H.grib2 2026-05-04 06:03 1.0M
20260504T00Z_MSC_CAPS_WindV_AGL-80m_RLatLon0.03_PT000H.grib2 2026-05-04 06:03 1.0M
20260504T00Z_MSC_CAPS_WindV_IsbL-0050_RLatLon0.03_PT000H.grib2 2026-05-04 06:03 744K
20260504T00Z_MSC_CAPS_WindV_IsbL-0100_RLatLon0.03_PT000H.grib2 2026-05-04 06:03 926K
20260504T00Z_MSC_CAPS_WindV_IsbL-0150_RLatLon0.03_PT000H.grib2 2026-05-04 06:03 671K
20260504T00Z_MSC_CAPS_WindV_IsbL-0175_RLatLon0.03_PT000H.grib2 2026-05-04 06:03 805K
20260504T00Z_MSC_CAPS_WindV_IsbL-0200_RLatLon0.03_PT000H.grib2 2026-05-04 06:03 820K
20260504T00Z_MSC_CAPS_WindV_IsbL-0225_RLatLon0.03_PT000H.grib2 2026-05-04 06:03 643K
20260504T00Z_MSC_CAPS_WindV_IsbL-0250_RLatLon0.03_PT000H.grib2 2026-05-04 06:03 663K
20260504T00Z_MSC_CAPS_WindV_IsbL-0275_RLatLon0.03_PT000H.grib2 2026-05-04 06:03 676K
20260504T00Z_MSC_CAPS_WindV_IsbL-0300_RLatLon0.03_PT000H.grib2 2026-05-04 06:03 682K
20260504T00Z_MSC_CAPS_WindV_IsbL-0350_RLatLon0.03_PT000H.grib2 2026-05-04 06:03 693K
20260504T00Z_MSC_CAPS_WindV_IsbL-0400_RLatLon0.03_PT000H.grib2 2026-05-04 06:03 893K
20260504T00Z_MSC_CAPS_WindV_IsbL-0450_RLatLon0.03_PT000H.grib2 2026-05-04 06:03 894K
20260504T00Z_MSC_CAPS_WindV_IsbL-0500_RLatLon0.03_PT000H.grib2 2026-05-04 06:03 896K
20260504T00Z_MSC_CAPS_WindV_IsbL-0550_RLatLon0.03_PT000H.grib2 2026-05-04 06:03 767K
20260504T00Z_MSC_CAPS_WindV_IsbL-0600_RLatLon0.03_PT000H.grib2 2026-05-04 06:03 777K
20260504T00Z_MSC_CAPS_WindV_IsbL-0650_RLatLon0.03_PT000H.grib2 2026-05-04 06:03 796K
20260504T00Z_MSC_CAPS_WindV_IsbL-0700_RLatLon0.03_PT000H.grib2 2026-05-04 06:03 823K
20260504T00Z_MSC_CAPS_WindV_IsbL-0750_RLatLon0.03_PT000H.grib2 2026-05-04 06:03 854K
20260504T00Z_MSC_CAPS_WindV_IsbL-0800_RLatLon0.03_PT000H.grib2 2026-05-04 06:03 887K
20260504T00Z_MSC_CAPS_WindV_IsbL-0850_RLatLon0.03_PT000H.grib2 2026-05-04 06:03 932K
20260504T00Z_MSC_CAPS_WindV_IsbL-0875_RLatLon0.03_PT000H.grib2 2026-05-04 06:03 950K
20260504T00Z_MSC_CAPS_WindV_IsbL-0900_RLatLon0.03_PT000H.grib2 2026-05-04 06:03 961K
20260504T00Z_MSC_CAPS_WindV_IsbL-0925_RLatLon0.03_PT000H.grib2 2026-05-04 06:03 1.2M
20260504T00Z_MSC_CAPS_WindV_IsbL-0950_RLatLon0.03_PT000H.grib2 2026-05-04 06:03 1.2M
20260504T00Z_MSC_CAPS_WindV_IsbL-0970_RLatLon0.03_PT000H.grib2 2026-05-04 06:03 1.2M
20260504T00Z_MSC_CAPS_WindV_IsbL-0985_RLatLon0.03_PT000H.grib2 2026-05-04 06:03 1.2M
20260504T00Z_MSC_CAPS_WindV_IsbL-1000_RLatLon0.03_PT000H.grib2 2026-05-04 06:03 1.2M
20260504T00Z_MSC_CAPS_WindV_IsbL-1015_RLatLon0.03_PT000H.grib2 2026-05-04 06:03 1.2M